Location: Grand Moustoir
(47.8355°N, 3.3120°W)
Time: 12:13:58
(UTC+00:00)

Cosmos 2278 Rocket - Pass Details

Date: 20 January 2020
Orbit: 842 x 844 km, 71.0° (Epoch: 16 February)

Event Time Altitude Azimuth Distance (km) Brightness Sun altitude
Rises 07:05:48 0° 337° (NNW) 3,410 4.9 -8.2°
Reaches altitude 10° 07:09:00 10° 355° (N) 2,472 4.4 -7.7°
Maximum altitude 07:13:00 19° 41° (NE) 1,893 4.3 -7.0°
Drops below altitude 10° 07:17:00 10° 86° (E) 2,465 5.8 -6.4°
Sets 07:20:10 0° 103° (ESE) 3,397 7.6 -5.9°
